| time (UTC) | temp F | wind direction | speed MPH | gust MPH | rain 1hr in | rain 24hr in | rain mn in | humidity % | barometer mb |
| 20260901113133 | 79 | 60 | 0.0 | 2.0 | 0.00 | 0.00 | 0.00 | 65 | 1017.2 |
| 20260901112433 | 79 | 61 | 0.0 | 2.0 | 0.00 | 0.00 | 0.00 | 65 | 1017.2 |
| 20260901111733 | 80 | 59 | 0.0 | 2.0 | 0.00 | 0.00 | 0.00 | 65 | 1017.2 |
| 20260901110333 | 80 | 59 | 0.0 | 0.0 | 0.00 | 0.00 | 0.00 | 64 | 1017.2 |
| 20260901105633 | 80 | 61 | 0.0 | 4.0 | 0.00 | 0.00 | 0.00 | 63 | 1016.8 |
| 20260901104934 | 80 | 61 | 0.0 | 4.0 | 0.00 | 0.00 | 0.00 | 63 | 1016.8 |
| 20260901104233 | 80 | 60 | 0.0 | 4.0 | 0.00 | 0.00 | 0.00 | 62 | 1016.8 |
| 20260901103533 | 80 | 59 | 0.0 | 4.0 | 0.00 | 0.00 | 0.00 | 62 | 1016.8 |
| 20260901102135 | 81 | 59 | 0.0 | 4.0 | 0.00 | 0.00 | 0.00 | 61 | 1016.8 |
| 20260901100733 | 81 | 62 | 0.0 | 4.0 | 0.00 | 0.00 | 0.00 | 60 | 1017.2 |
| 20260901100033 | 81 | 62 | 0.0 | 4.0 | 0.00 | 0.00 | 0.00 | 60 | 1017.2 |
| 20260901095332 | 81 | 59 | 0.0 | 4.0 | 0.00 | 0.00 | 0.00 | 60 | 1016.8 |
| 20260901094633 | 81 | 60 | 0.0 | 4.0 | 0.00 | 0.00 | 0.00 | 60 | 1017.2 |
| 20260901093933 | 81 | 61 | 0.0 | 4.0 | 0.00 | 0.00 | 0.00 | 59 | 1017.2 |
| 20260901092532 | 81 | 59 | 0.0 | 0.0 | 0.00 | 0.00 | 0.00 | 59 | 1016.8 |
| 20260901091833 | 82 | 59 | 0.0 | 0.0 | 0.00 | 0.00 | 0.00 | 59 | 1017.2 |
| 20260901091133 | 82 | 55 | 0.0 | 0.0 | 0.00 | 0.00 | 0.00 | 59 | 1017.2 |
| 20260901085732 | 82 | 60 | 0.0 | 2.0 | 0.00 | 0.00 | 0.00 | 58 | 1016.8 |
| 20260901084333 | 82 | 59 | 0.0 | 2.0 | 0.00 | 0.00 | 0.00 | 57 | 1016.8 |
| 20260901083632 | 83 | 60 | 0.0 | 6.0 | 0.00 | 0.00 | 0.00 | 56 | 1016.8 |
| 20260901082932 | 83 | 59 | 0.0 | 6.0 | 0.00 | 0.00 | 0.00 | 56 | 1016.8 |
| 20260901082232 | 84 | 61 | 0.0 | 6.0 | 0.00 | 0.00 | 0.00 | 55 | 1016.8 |
| 20260901081533 | 84 | 64 | 0.0 | 6.0 | 0.00 | 0.00 | 0.00 | 55 | 1016.8 |
| 20260901080133 | 84 | 58 | 0.0 | 6.0 | 0.00 | 0.00 | 0.00 | 54 | 1016.8 |
| 20260901075434 | 84 | 64 | 2.0 | 6.0 | 0.00 | 0.00 | 0.00 | 54 | 1016.8 |
| 20260901074732 | 85 | 68 | 2.0 | 6.0 | 0.00 | 0.00 | 0.00 | 54 | 1016.8 |
| 20260901074032 | 85 | 57 | 0.0 | 6.0 | 0.00 | 0.00 | 0.00 | 53 | 1016.8 |
| 20260901073332 | 85 | 55 | 0.0 | 4.0 | 0.00 | 0.00 | 0.00 | 53 | 1016.8 |
| 20260901072632 | 85 | 81 | 2.0 | 2.0 | 0.00 | 0.00 | 0.00 | 53 | 1016.8 |
| 20260901071932 | 85 | 59 | 0.0 | 4.0 | 0.00 | 0.00 | 0.00 | 52 | 1016.8 |
| 20260901071232 | 85 | 55 | 0.0 | 4.0 | 0.00 | 0.00 | 0.00 | 52 | 1016.8 |
| 20260901070532 | 86 | 67 | 0.0 | 4.0 | 0.00 | 0.00 | 0.00 | 51 | 1016.8 |
| 20260901065132 | 86 | 61 | 0.0 | 6.0 | 0.00 | 0.00 | 0.00 | 51 | 1016.8 |
| 20260901064432 | 86 | 60 | 0.0 | 6.0 | 0.00 | 0.00 | 0.00 | 50 | 1016.5 |
| 20260901063732 | 87 | 58 | 0.0 | 6.0 | 0.00 | 0.00 | 0.00 | 49 | 1016.8 |
| 20260901063032 | 87 | 61 | 0.0 | 6.0 | 0.00 | 0.00 | 0.00 | 49 | 1016.5 |
| 20260901062332 | 87 | 58 | 0.0 | 6.0 | 0.00 | 0.00 | 0.00 | 49 | 1016.5 |
| 20260901060932 | 87 | 61 | 5.0 | 6.0 | 0.00 | 0.00 | 0.00 | 48 | 1016.5 |
| 20260901060232 | 87 | 63 | 2.0 | 6.0 | 0.00 | 0.00 | 0.00 | 48 | 1016.2 |
| 20260901055532 | 87 | 62 | 0.0 | 6.0 | 0.00 | 0.00 | 0.00 | 48 | 1016.2 |
| 20260901054832 | 87 | 64 | 2.0 | 6.0 | 0.00 | 0.00 | 0.00 | 47 | 1016.2 |
| 20260901054132 | 88 | 60 | 0.0 | 6.0 | 0.00 | 0.00 | 0.00 | 47 | 1015.8 |
| 20260901053432 | 87 | 60 | 0.0 | 6.0 | 0.00 | 0.00 | 0.00 | 47 | 1016.2 |
| 20260901052732 | 87 | 65 | 2.0 | 4.0 | 0.00 | 0.00 | 0.00 | 47 | 1015.8 |
| 20260901052032 | 87 | 65 | 5.0 | 4.0 | 0.00 | 0.00 | 0.00 | 47 | 1015.8 |
| 20260901051332 | 87 | 64 | 2.0 | 4.0 | 0.00 | 0.00 | 0.00 | 47 | 1015.8 |
| 20260901045933 | 86 | 62 | 0.0 | 2.0 | 0.00 | 0.00 | 0.00 | 46 | 1015.8 |
| 20260901044532 | 86 | 60 | 0.0 | 2.0 | 0.00 | 0.00 | 0.00 | 47 | 1015.5 |
| 20260901043832 | 85 | 59 | 0.0 | 2.0 | 0.00 | 0.00 | 0.00 | 47 | 1015.5 |
| 20260901041733 | 86 | 59 | 0.0 | 0.0 | 0.00 | 0.00 | 0.00 | 46 | 1015.5 |
| 20260901041032 | 86 | 59 | 0.0 | 0.0 | 0.00 | 0.00 | 0.00 | 46 | 1015.5 |
| 20260901040333 | 86 | 60 | 0.0 | 0.0 | 0.00 | 0.00 | 0.00 | 46 | 1015.5 |
| 20260901035632 | 87 | 59 | 0.0 | 0.0 | 0.00 | 0.00 | 0.00 | 46 | 1015.5 |
| 20260901034932 | 87 | 60 | 0.0 | 0.0 | 0.00 | 0.00 | 0.00 | 45 | 1015.5 |
| 20260901034232 | 87 | 59 | 0.0 | 0.0 | 0.00 | 0.00 | 0.00 | 44 | 1015.5 |
| 20260901033532 | 87 | 59 | 0.0 | 2.0 | 0.00 | 0.00 | 0.00 | 44 | 1015.5 |
| 20260901032832 | 87 | 60 | 0.0 | 2.0 | 0.00 | 0.00 | 0.00 | 44 | 1015.5 |
| 20260901032132 | 88 | 59 | 0.0 | 2.0 | 0.00 | 0.00 | 0.00 | 43 | 1015.1 |
| 20260901031433 | 88 | 59 | 0.0 | 2.0 | 0.00 | 0.00 | 0.00 | 43 | 1015.5 |
| 20260901030733 | 89 | 59 | 0.0 | 4.0 | 0.00 | 0.00 | 0.00 | 42 | 1015.1 |
| 20260901025332 | 89 | 59 | 0.0 | 4.0 | 0.00 | 0.00 | 0.00 | 42 | 1014.8 |
| 20260901024632 | 90 | 60 | 0.0 | 4.0 | 0.00 | 0.00 | 0.00 | 41 | 1015.1 |
| 20260901023232 | 90 | 59 | 0.0 | 4.0 | 0.00 | 0.00 | 0.00 | 40 | 1014.8 |
| 20260901022532 | 90 | 60 | 0.0 | 4.0 | 0.00 | 0.00 | 0.00 | 40 | 1014.8 |
| 20260901021132 | 90 | 76 | 0.0 | 0.0 | 0.00 | 0.00 | 0.00 | 40 | 1014.8 |
| 20260901020433 | 91 | 59 | 0.0 | 2.0 | 0.00 | 0.00 | 0.00 | 39 | 1014.5 |
| 20260901015733 | 91 | 61 | 0.0 | 2.0 | 0.00 | 0.00 | 0.00 | 39 | 1014.5 |
| 20260901015032 | 91 | 60 | 0.0 | 4.0 | 0.00 | 0.00 | 0.00 | 38 | 1014.5 |
| 20260901014332 | 92 | 60 | 0.0 | 4.0 | 0.00 | 0.00 | 0.00 | 38 | 1014.5 |
| 20260901013632 | 92 | 59 | 0.0 | 4.0 | 0.00 | 0.00 | 0.00 | 37 | 1014.5 |
| 20260901012932 | 93 | 58 | 0.0 | 6.0 | 0.00 | 0.00 | 0.00 | 36 | 1014.5 |
| 20260901012232 | 93 | 65 | 0.0 | 6.0 | 0.00 | 0.00 | 0.00 | 36 | 1014.8 |
| 20260901011532 | 93 | 60 | 0.0 | 6.0 | 0.00 | 0.00 | 0.00 | 35 | 1014.1 |
| 20260901010831 | 94 | 59 | 0.0 | 10.0 | 0.00 | 0.00 | 0.00 | 35 | 1014.1 |
| 20260901010132 | 94 | 59 | 0.0 | 10.0 | 0.00 | 0.00 | 0.00 | 34 | 1014.1 |
| 20260901005431 | 95 | 64 | 2.0 | 10.0 | 0.00 | 0.00 | 0.00 | 33 | 1014.1 |
| 20260901004732 | 95 | 59 | 0.0 | 10.0 | 0.00 | 0.00 | 0.00 | 33 | 1014.1 |
| 20260901003333 | 96 | 65 | 2.0 | 10.0 | 0.00 | 0.00 | 0.00 | 33 | 1014.1 |
| 20260901002632 | 96 | 63 | 2.0 | 10.0 | 0.00 | 0.00 | 0.00 | 32 | 1014.1 |
| 20260901001231 | 96 | 58 | 2.0 | 8.0 | 0.00 | 0.00 | 0.00 | 33 | 1014.1 |
| 20260901000532 | 97 | 62 | 0.0 | 10.0 | 0.00 | 0.00 | 0.00 | 32 | 1014.1 |
| 20260831235832 | 97 | 63 | 0.0 | 10.0 | 0.00 | 0.00 | 0.00 | 32 | 1014.1 |
| 20260831235131 | 98 | 66 | 5.0 | 10.0 | 0.00 | 0.00 | 0.00 | 31 | 1014.1 |
| 20260831234432 | 98 | 64 | 5.0 | 10.0 | 0.00 | 0.00 | 0.00 | 31 | 1014.1 |
| 20260831233731 | 98 | 59 | 2.0 | 10.0 | 0.00 | 0.00 | 0.00 | 31 | 1014.1 |
| 20260831233031 | 98 | 61 | 0.0 | 10.0 | 0.00 | 0.00 | 0.00 | 31 | 1014.1 |
| 20260831232331 | 98 | 57 | 0.0 | 10.0 | 0.00 | 0.00 | 0.00 | 31 | 1014.1 |
| 20260831231631 | 98 | 89 | 5.0 | 8.0 | 0.00 | 0.00 | 0.00 | 32 | 1014.1 |
| 20260831225531 | 98 | 61 | 0.0 | 12.0 | 0.00 | 0.00 | 0.00 | 33 | 1014.1 |
| 20260831224831 | 98 | 37 | 5.0 | 12.0 | 0.00 | 0.00 | 0.00 | 33 | 1014.1 |
| 20260831224131 | 99 | 85 | 5.0 | 12.0 | 0.00 | 0.00 | 0.00 | 33 | 1014.5 |
| 20260831223435 | 99 | 61 | 0.0 | 12.0 | 0.00 | 0.00 | 0.00 | 33 | 1014.5 |
| 20260831221332 | 100 | 113 | 8.0 | 12.0 | 0.00 | 0.00 | 0.00 | 32 | 1014.5 |
| 20260831215932 | 102 | 73 | 5.0 | 12.0 | 0.00 | 0.00 | 0.00 | 31 | 1014.5 |
| 20260831214532 | 104 | 77 | 5.0 | 12.0 | 0.00 | 0.00 | 0.00 | 31 | 1014.5 |
| 20260831213831 | 104 | 68 | 2.0 | 12.0 | 0.00 | 0.00 | 0.00 | 30 | 1014.5 |
| 20260831213132 | 104 | 62 | 2.0 | 12.0 | 0.00 | 0.00 | 0.00 | 31 | 1014.8 |
| 20260831212432 | 103 | 55 | 8.0 | 12.0 | 0.00 | 0.00 | 0.00 | 30 | 1014.8 |
| 20260831211032 | 105 | 52 | 8.0 | 12.0 | 0.00 | 0.00 | 0.00 | 30 | 1015.1 |
| 20260831210332 | 105 | 59 | 11.0 | 12.0 | 0.00 | 0.00 | 0.00 | 30 | 1014.8 |
| 20260831204932 | 103 | 55 | 2.0 | 12.0 | 0.00 | 0.00 | 0.00 | 31 | 1015.1 |
| 20260831204231 | 103 | 76 | 2.0 | 12.0 | 0.00 | 0.00 | 0.00 | 31 | 1015.5 |
| 20260831203531 | 104 | 62 | 2.0 | 12.0 | 0.00 | 0.00 | 0.00 | 30 | 1015.5 |
| 20260831202831 | 104 | 60 | 5.0 | 17.0 | 0.00 | 0.00 | 0.00 | 31 | 1015.8 |
| 20260831202136 | 103 | 69 | 17.0 | 17.0 | 0.00 | 0.00 | 0.00 | 32 | 1015.8 |
| 20260831201431 | 104 | 64 | 8.0 | 17.0 | 0.00 | 0.00 | 0.00 | 31 | 1015.8 |
| 20260831200031 | 103 | 92 | 11.0 | 17.0 | 0.00 | 0.00 | 0.00 | 33 | 1015.8 |
| 20260831195331 | 102 | 67 | 5.0 | 17.0 | 0.00 | 0.00 | 0.00 | 33 | 1015.8 |
| 20260831194631 | 102 | 16 | 5.0 | 17.0 | 0.00 | 0.00 | 0.00 | 33 | 1016.2 |
| 20260831193931 | 101 | 40 | 11.0 | 17.0 | 0.00 | 0.00 | 0.00 | 34 | 1016.2 |
| 20260831193231 | 101 | 66 | 5.0 | 10.0 | 0.00 | 0.00 | 0.00 | 35 | 1016.5 |
| 20260831192531 | 101 | 73 | 8.0 | 14.0 | 0.00 | 0.00 | 0.00 | 35 | 1016.5 |
| 20260831191833 | 101 | 55 | 2.0 | 14.0 | 0.00 | 0.00 | 0.00 | 34 | 1016.5 |
| 20260831191132 | 101 | 57 | 2.0 | 14.0 | 0.00 | 0.00 | 0.00 | 34 | 1016.8 |
| 20260831190431 | 101 | 59 | 2.0 | 14.0 | 0.00 | 0.00 | 0.00 | 36 | 1016.5 |
| 20260831185731 | 100 | 59 | 5.0 | 14.0 | 0.00 | 0.00 | 0.00 | 36 | 1016.5 |
| 20260831185031 | 100 | 59 | 5.0 | 14.0 | 0.00 | 0.00 | 0.00 | 36 | 1016.8 |
| 20260831184331 | 101 | 83 | 5.0 | 14.0 | 0.00 | 0.00 | 0.00 | 36 | 1016.8 |
| 20260831183631 | 102 | 47 | 5.0 | 14.0 | 0.00 | 0.00 | 0.00 | 36 | 1016.8 |
| 20260831182931 | 101 | 108 | 5.0 | 10.0 | 0.00 | 0.00 | 0.00 | 36 | 1016.8 |
| 20260831182231 | 102 | 76 | 5.0 | 10.0 | 0.00 | 0.00 | 0.00 | 37 | 1017.2 |
| 20260831181531 | 101 | 85 | 5.0 | 10.0 | 0.00 | 0.00 | 0.00 | 38 | 1017.2 |
| 20260831180831 | 102 | 64 | 2.0 | 10.0 | 0.00 | 0.00 | 0.00 | 38 | 1017.2 |
| 20260831175431 | 102 | 61 | 5.0 | 10.0 | 0.00 | 0.00 | 0.00 | 39 | 1017.5 |
| 20260831174733 | 101 | 63 | 5.0 | 10.0 | 0.00 | 0.00 | 0.00 | 39 | 1017.5 |
| 20260831174031 | 101 | 38 | 5.0 | 10.0 | 0.00 | 0.00 | 0.00 | 39 | 1017.9 |
| 20260831172631 | 100 | 56 | 2.0 | 10.0 | 0.00 | 0.00 | 0.00 | 39 | 1017.9 |
| 20260831171931 | 100 | 57 | 5.0 | 10.0 | 0.00 | 0.00 | 0.00 | 40 | 1018.2 |
| 20260831171231 | 100 | 131 | 5.0 | 10.0 | 0.00 | 0.00 | 0.00 | 41 | 1017.9 |
| 20260831170530 | 100 | 88 | 8.0 | 8.0 | 0.00 | 0.00 | 0.00 | 43 | 1018.2 |
| 20260831165831 | 99 | 99 | 5.0 | 8.0 | 0.00 | 0.00 | 0.00 | 43 | 1018.2 |
| 20260831165130 | 99 | 93 | 5.0 | 6.0 | 0.00 | 0.00 | 0.00 | 42 | 1018.2 |
| 20260831164431 | 99 | 91 | 5.0 | 6.0 | 0.00 | 0.00 | 0.00 | 43 | 1018.2 |
| 20260831163031 | 98 | 79 | 5.0 | 6.0 | 0.00 | 0.00 | 0.00 | 44 | 1018.2 |
| 20260831162330 | 98 | 77 | 2.0 | 6.0 | 0.00 | 0.00 | 0.00 | 45 | 1018.2 |
| 20260831161631 | 97 | 58 | 5.0 | 6.0 | 0.00 | 0.00 | 0.00 | 46 | 1018.2 |
| 20260831160931 | 96 | 91 | 2.0 | 6.0 | 0.00 | 0.00 | 0.00 | 46 | 1018.2 |
| 20260831160231 | 96 | 71 | 2.0 | 6.0 | 0.00 | 0.00 | 0.00 | 48 | 1018.2 |
| 20260831155530 | 95 | 47 | 2.0 | 6.0 | 0.00 | 0.00 | 0.00 | 49 | 1018.2 |
| 20260831154130 | 93 | 58 | 2.0 | 8.0 | 0.00 | 0.00 | 0.00 | 51 | 1018.5 |
| 20260831153430 | 92 | 69 | 2.0 | 8.0 | 0.00 | 0.00 | 0.00 | 52 | 1018.5 |
| 20260831152731 | 91 | 91 | 8.0 | 8.0 | 0.00 | 0.00 | 0.00 | 54 | 1018.2 |
| 20260831151331 | 89 | 66 | 5.0 | 8.0 | 0.00 | 0.00 | 0.00 | 56 | 1018.2 |
| 20260831150630 | 88 | 66 | 5.0 | 8.0 | 0.00 | 0.00 | 0.00 | 57 | 1018.2 |
| 20260831145931 | 88 | 67 | 2.0 | 8.0 | 0.00 | 0.00 | 0.00 | 58 | 1018.2 |
| 20260831145230 | 87 | 52 | 0.0 | 8.0 | 0.00 | 0.00 | 0.00 | 59 | 1018.2 |
| 20260831144530 | 87 | 64 | 5.0 | 8.0 | 0.00 | 0.00 | 0.00 | 59 | 1018.2 |
| 20260831143830 | 87 | 57 | 0.0 | 8.0 | 0.00 | 0.00 | 0.00 | 59 | 1018.2 |
| 20260831143130 | 86 | 57 | 0.0 | 8.0 | 0.00 | 0.00 | 0.00 | 60 | 1018.2 |
| 20260831142430 | 86 | 66 | 0.0 | 8.0 | 0.00 | 0.00 | 0.00 | 60 | 1018.2 |
| 20260831141730 | 86 | 61 | 0.0 | 8.0 | 0.00 | 0.00 | 0.00 | 60 | 1018.2 |
| 20260831141030 | 86 | 68 | 5.0 | 6.0 | 0.00 | 0.00 | 0.00 | 61 | 1018.2 |
| 20260831140330 | 86 | 43 | 5.0 | 6.0 | 0.00 | 0.00 | 0.00 | 62 | 1017.9 |
| 20260831135630 | 85 | 59 | 0.0 | 6.0 | 0.00 | 0.00 | 0.00 | 63 | 1018.2 |
| 20260831134230 | 83 | 59 | 0.0 | 6.0 | 0.00 | 0.00 | 0.00 | 66 | 1017.9 |
| 20260831133530 | 82 | 53 | 0.0 | 6.0 | 0.00 | 0.00 | 0.00 | 67 | 1017.5 |
| 20260831132130 | 80 | 57 | 2.0 | 6.0 | 0.00 | 0.00 | 0.00 | 67 | 1017.5 |
| 20260831131430 | 80 | 71 | 5.0 | 6.0 | 0.00 | 0.00 | 0.00 | 67 | 1017.9 |
| 20260831130029 | 79 | 51 | 2.0 | 6.0 | 0.00 | 0.00 | 0.00 | 67 | 1017.5 |
| 20260831125531 | 79 | 68 | 5.0 | 6.0 | 0.00 | 0.00 | 0.00 | 67 | 1017.5 |
| 20260831124831 | 79 | 83 | 5.0 | 4.0 | 0.00 | 0.00 | 0.00 | 67 | 1017.2 |
| 20260831124131 | 79 | 60 | 0.0 | 4.0 | 0.00 | 0.00 | 0.00 | 67 | 1017.2 |
| 20260831123431 | 79 | 59 | 0.0 | 4.0 | 0.00 | 0.00 | 0.00 | 67 | 1017.2 |
| 20260831122031 | 79 | 57 | 0.0 | 4.0 | 0.00 | 0.00 | 0.00 | 67 | 1016.8 |
| 20260831121331 | 79 | 59 | 0.0 | 4.0 | 0.00 | 0.00 | 0.00 | 67 | 1016.8 |
| 20260831115934 | 79 | 63 | 0.0 | 2.0 | 0.00 | 0.00 | 0.00 | 66 | 1016.5 |
| 20260831115234 | 79 | 59 | 0.0 | 2.0 | 0.00 | 0.00 | 0.00 | 66 | 1016.2 |
| 20260831114534 | 80 | 61 | 0.0 | 2.0 | 0.00 | 0.00 | 0.00 | 66 | 1016.5 |
| 20260831113833 | 80 | 59 | 0.0 | 4.0 | 0.00 | 0.00 | 0.00 | 65 | 1016.5 |